Retour au catalogue

THOR ABLESTAR DEB

ActifLEO
NORAD 403·DEBRIS·🇺🇸 United States

Lancé Jun 29, 1961 depuis Cape Canaveral Space Force Station

Loading…

Prochains Passages (prochaines 24 heures)

TLE

FraisSource: Space-Track

Époque: Sep 7, 2026, 07:58 UTC

1 00403U 61015EC  26250.33215824 -.00000005  00000-0  65653-4 0  9998
2 00403  66.8395  89.2300 0016249 134.0649  39.0609 13.81246867282495

Suivez THOR ABLESTAR DEB en temps réel avec AllMySat

Download on the App Store